Weather in Kushadasi

Turkey     37°51′37″N   27°15′23″E
В апреле 2022 года жителям России запретили посещать сайт meteo.paraplan.net по решению Генеральной прокуратуры. Аудитория сайта уменьшилась в 10 раз. Владельцы сайта не видят смысла в поддержке погодного сервера в таких условиях. Сайт будет закрыт в октябре.
temp.,
°C
wind,
m/s
gust,
m/s
humid.,
%
clouds,
%
prec.,
mm/h
press.,
hPa
HPBL,
m
3 october, mon
mon300:00+23n714470 0.0 1012649
03:00+19n59570 0.0 1011358
06:00+18n56610 0.0 1011177
09:00+19nne47530 0.0 1011345
12:00+25n57350 0.0 1010771
15:00+26wnw46370 0.0 1008857
18:00+25nw56430 0.0 1007147
21:00+21nnw45552 0.0 100993
4 october, tue
tue400:00+19n334961 0.0 100990
03:00+18n34474 0.0 1009121
06:00+16n45570 0.0 1010177
09:00+18n46550 0.0 1012369
12:00+23nnw57420 0.0 1013836
15:00+25nw68390 0.0 1012998
18:00+24nnw79430 0.0 1013566
21:00+19n55480 0.0 1015182
5 october, wed
wed500:00+17n45510 0.0 1017186
03:00+15nne45575 0.0 1017186
06:00+14nne45660 0.0 1018211
09:00+16nne45600 0.0 1019314
12:00+21nnw56430 0.0 1019948
15:00+23wnw46410 0.0 1017832
18:00+24n68370 0.0 1016626
21:00+19n57470 0.0 1018328
6 october, thu
thu600:00+16nne45590 0.0 1019223
03:00+15nne45670 0.0 1018219
06:00+14nne45740 0.0 1018189
09:00+16nne44640 0.0 1018302
12:00+22nnw45420 0.0 1017883
15:00+23wnw56470 0.0 1016439
18:00+23wnw57530 0.0 1015226
21:00+20n47581 0.0 1016270
7 october, fri
fri700:00+17n46690 0.0 1017304
03:00+15n45760 0.0 1016251
06:00+14nne45801 0.0 1016237
09:00+16nne45690 0.0 1016352
12:00+23n57452 0.0 10151031
15:00+26n893776 0.0 10131086
18:00+24n810380 0.0 1013597
21:00+19n465358 0.0 1015265